OPS 4682 DEB, 17093

Orbit data source: Space-Track

OPS 4682 DEB, 17093 is space debris in LEO originally from a launch on Sat, 03 Apr 1965 UTC launched from the Air Force Western Test Range (AFWTR). Debris objects in space refer to the collection of defunct objects orbiting the Earth. Examples of debris include non-operational satellites, rocket bodies, and fragments generated from explosions, collisions, or faulty payload assembly.

Loading next visibility...
Identifier
17093, 1965-027U
Orbit
LEO
Country
Flag of USUS
Related business
Manufacturer
Unknown
Mission
Spacecraft
Bus & Motor
Unknown
Mass
Unknown
Launch date (UTC)
1965-04-03 (61 years ago)
Launch vehicle
Unknown
Launch site
Air Force Western Test Range (AFWTR)
Object type
Payload
Rocket body
Debris
Shape & HBR
Unknown shape, 0.1 m
Radar Cross Section
Medium (>0.1 m² and <1 m²)

Expand to show TLE details & history
Last TLE update: 1 day ago

TLE from 1 day ago
0 OPS 4682 DEB
1 17093U 65027U   26262.57334300 -.00000244  00000-0 -85719-3 0  9998
2 17093  90.2478  10.6638 0028173 139.3216 233.0130 12.98179217959228
Epoch: 2026-09-19T13:45Z
TLE epoch observation values (Epoch: 2026-09-19T13:45:36.835Z)
Latitude
12.0349°
Longitude
165.72782°
Altitude
1,284.361 km
Speed
7.209 km/s
True Right ascension
00h 42m 26s
True Declination
11° 58' 11"
Sunlit
Object was in full shadow at epoch
Visualization orbit readout
Latitude
Unknown
Longitude
Unknown
Altitude
Unknown
Speed
Unknown
Apparent Right ascension
Unknown
Apparent Declination
Unknown
Sunlit
N/A
Visualization observer readout
Local Sidereal Time
08:49:15
Azimuth
Unknown
Elevation
Unknown
Doppler factor
Unknown
Orbital elements
Apogee altitude
1,287.895 km
Perigee altitude
1,244.822 km
Semi-major axis
7,644.496 km
Eccentricity
0.00282
Inclination
90.2478°
RAAN
10.6638°
Arg. of periapsis
139.3216°
True anomaly
232.75567°
Mean anomaly
233.013°
Eccentric anomaly
232.88428°
Mean motion
3.24728 °/min
Orbital period
110.86 mins
BSTAR
-0.00085719
Loading maneuver chart data...
Computing Atmospheric mass density...
Loading historical data...
Loading historical data...
Loading historical data...
Loading historical data...
Loading historical data...
Loading historical data...
Loading historical data...

Documentation

Showing up to 5 results
|